This is the latest recevied weather packets stored in our database for station/object MM1PTT-13. If no packets are shown the sender has not sent any weather packets the latest 10 day(s).
| Time | Temp. | Humidity | Pressure | Rain* | Wind** | Luminosity | Snow |
|---|---|---|---|---|---|---|---|
| 1777722343 | 14.44° C | 75% | 985.4 hPa | 0 mm | - | 296 W/m² | - |
| 1777722042 | 14.44° C | 75% | 985.1 hPa | 0 mm | - | 356 W/m² | - |
| 1777721742 | 15° C | 76% | 985.1 hPa | 0 mm | - | 399 W/m² | - |
| 1777721443 | 14.44° C | 75% | 985.1 hPa | 0 mm | - | 459 W/m² | - |
| 1777721142 | 14.44° C | 76% | 985.1 hPa | 0 mm | - | 370 W/m² | - |
| 1777720843 | 13.89° C | 77% | 985.1 hPa | 0 mm | - | 346 W/m² | - |
| 1777720542 | 14.44° C | 77% | 985.4 hPa | 0 mm | - | 346 W/m² | - |
| 1777720243 | 13.89° C | 79% | 985.4 hPa | 0 mm | - | 353 W/m² | - |
| 1777719942 | 13.89° C | 79% | 985.1 hPa | 0 mm | - | 243 W/m² | - |
| 1777719646 | 13.89° C | 79% | 985.1 hPa | 0 mm | - | 236 W/m² | - |
| 1777719344 | 13.89° C | 78% | 985.4 hPa | 0 mm | - | 215 W/m² | - |
| 1777719043 | 13.89° C | 79% | 985.4 hPa | 0 mm | - | 188 W/m² | - |
| 1777718743 | 13.89° C | 78% | 985.4 hPa | 0 mm | - | 257 W/m² | - |
| 1777718442 | 13.89° C | 80% | 985.4 hPa | 0 mm | - | 347 W/m² | - |
| 1777718142 | 13.33° C | 81% | 985.4 hPa | 0 mm | - | 309 W/m² | - |
| 1777717842 | 13.33° C | 81% | 985.4 hPa | 0 mm | - | 248 W/m² | - |
| 1777717546 | 13.33° C | 82% | 985.4 hPa | 0 mm | - | 189 W/m² | - |
| 1777717243 | 13.33° C | 81% | 985.4 hPa | 0 mm | - | 163 W/m² | - |
| 1777716942 | 13.33° C | 80% | 985.4 hPa | 0 mm | - | 196 W/m² | - |
| 1777716643 | 13.33° C | 82% | 985.4 hPa | 0 mm | - | 250 W/m² | - |
| 1777716343 | 12.78° C | 83% | 985.4 hPa | 0 mm | - | 161 W/m² | - |
| 1777716042 | 12.78° C | 83% | 985.4 hPa | 0 mm | - | 178 W/m² | - |
| 1777715743 | 12.78° C | 82% | 985.4 hPa | 0 mm | - | 164 W/m² | - |
| 1777715442 | 12.78° C | 82% | 985.4 hPa | 0 mm | - | 153 W/m² | - |
| 1777715144 | 13.33° C | 82% | 985.4 hPa | 0 mm | - | 206 W/m² | - |
* Rain latest hour (hover to see other rain measurements)
** Current wind speed in m/s (hover to see current wind gust speed)